#timestamp,LO_Frequency,Hit 
1506222015.7,286047003.1,N
1506222035.5,286047003.5,N
1506222055.4,286047004.3,N
1506222075.2,286047001.5,N
1506222095.0,286047002.2,N
1506222095.9,286047002.2,N
1506222115.8,286047000.1,N
1506222135.6,286047002.3,N
1506222155.4,286047001.7,N
1506222175.3,286047000.6,N
1506222195.1,286046998.1,N
1506222196.0,286046998.1,N
1506222215.8,286047002.2,N
1506222235.6,286047002.7,N
1506222255.5,286047001.1,N
1506222275.3,286046998.7,N
1506222295.1,286047000.4,N
1506222315.9,286047000.3,N
1506222335.7,286046998.6,N
1506222355.5,286046999.6,N
1506222375.4,286046999.4,N
1506222395.2,286046996.9,N
1506222415.0,286047000.1,N
1506222415.9,286047000.1,N
1506222435.8,286046998.4,N
1506222455.6,286046998.8,N
1506222475.4,286047000.6,N
1506222495.3,286046999.8,N
1506222515.1,286047000.0,N
1506222516.0,286047000.0,N
1506222535.8,286047001.0,N
1506222555.7,286047002.3,N
1506222575.5,286047005.9,P
1506222595.3,286047004.2,N
1506222615.2,286047003.1,N
1506222635.9,286047002.9,N
1506222655.7,286047001.7,N
1506222675.5,286047003.0,N
1506222695.4,286047004.2,N
1506222715.2,286047003.7,N
1506222735.0,286047001.9,N
1506222735.9,286047001.9,N
1506222755.8,286047004.4,P
1506222775.6,286047000.1,N
1506222795.4,286046998.2,N
1506222815.3,286046998.9,N
1506222835.1,286046997.8,N
1506222855.8,286046997.7,N
1506222875.7,286046999.2,N
1506222895.5,286046998.9,N
1506222915.3,286047001.2,N
1506222935.2,286046999.8,N
1506222955.9,286047000.0,N
1506222975.7,286047002.6,N
1506222995.6,286047003.9,N
1506223015.4,286047004.2,N
1506223035.2,286047004.4,N
1506223055.1,286046999.8,N
1506223056.0,286046999.8,N
1506223075.8,286047002.1,N
1506223095.6,286047002.6,N
1506223115.4,286046999.9,N
1506223135.3,286047001.9,N
1506223155.1,286047002.0,N
1506223175.8,286047002.8,N
1506223195.7,286047002.2,N
1506223215.5,286047005.7,N
1506223235.3,286047003.3,N
1506223255.2,286047004.3,N
1506223275.9,286047001.5,N
1506223295.7,286047000.0,N
1506223315.6,286046999.8,N
1506223335.4,286047003.1,N
1506223355.2,286047005.8,N
1506223375.0,286047003.9,N
1506223376.0,286047003.9,N
1506223395.8,286047002.7,N
1506223415.6,286046999.9,N
1506223435.4,286047000.0,N
1506223455.3,286047003.1,N
1506223475.1,286047002.0,N
1506223495.8,286047003.8,N
1506223515.7,286047003.2,N
1506223535.5,286047004.2,N
1506223555.3,286047004.1,N
1506223575.2,286047005.2,N
1506223595.9,286047003.6,N
1506223615.7,286047002.3,N
1506223635.6,286047004.1,N
1506223655.4,286047005.6,P
1506223675.2,286047002.2,N
1506223695.1,286047003.5,N
1506223696.0,286047003.5,N
1506223715.8,286047002.0,N
1506223735.6,286047003.6,N
1506223755.5,286047004.3,P
1506223775.3,286046998.8,N
1506223795.1,286047000.3,N
1506223815.9,286047000.5,N
1506223835.7,286046995.3,N
1506223855.5,286046995.5,N
1506223875.4,286046996.6,N
1506223895.2,286046999.3,N
1506223915.0,286047001.1,N
1506223935.1,286046999.6,N
1506223955.8,286046997.2,N
1506223975.7,286046994.9,N
1506223995.5,286046998.0,N
1506224015.3,286046995.6,N
1506224035.2,286046999.6,N
1506224055.9,286046999.3,N
1506224075.7,286046995.4,N
1506224095.6,286046997.5,N
1506224115.4,286046996.8,N
1506224135.2,286046997.3,N
1506224155.1,286046995.0,N
1506224156.0,286046995.0,N
1506224175.8,286046996.9,N
1506224195.6,286046995.6,N
1506224215.4,286046996.3,N
1506224235.3,286046995.7,N
1506224255.1,286046995.8,N
1506224275.8,286046995.1,N
1506224295.7,286046995.3,N
1506224315.5,286046998.9,N
1506224335.3,286046998.8,N
1506224355.2,286047000.0,N
1506224375.9,286047002.3,N
1506224395.7,286046999.6,N
1506224415.6,286046995.6,N
1506224435.4,286046997.6,N
1506224455.2,286046997.7,N
1506224475.0,286046998.7,N
1506224476.0,286046998.7,N
1506224495.8,286047000.8,N
1506224515.6,286046998.8,N
1506224535.4,286046999.3,N
1506224555.3,286046997.2,N
1506224575.1,286046995.4,N
1506224595.8,286046996.8,N
1506224615.7,286046999.3,N
1506224635.5,286046999.1,N
1506224655.3,286046997.1,N
1506224675.2,286046997.0,N
1506224695.9,286046998.8,N
1506224715.7,286046997.0,N
1506224735.6,286046997.6,N
1506224755.4,286047000.1,N
1506224775.2,286047002.1,N
1506224795.1,286047002.5,N
1506224796.0,286047002.5,N
1506224815.8,286047004.4,N
1506224835.6,286047001.8,N
1506224855.5,286047001.5,N
1506224875.3,286047001.7,N
1506224895.1,286047003.1,N
1506224915.8,286047003.8,N
1506224935.7,286047001.8,N
1506224955.5,286047001.4,N
1506224975.3,286047003.9,N
1506224995.2,286047005.8,N
1506225015.9,286047003.7,N
1506225035.7,286047005.4,N
1506225055.6,286047002.1,N
1506225075.4,286047000.1,N
1506225095.2,286046999.9,N
1506225115.1,286047000.7,N
1506225116.0,286047000.7,N
1506225135.8,286046998.3,N
1506225155.6,286046999.8,N
1506225175.5,286047000.1,N
1506225195.3,286047002.5,N
1506225215.1,286047002.7,N
1506225235.9,286047002.5,N
1506225255.7,286047002.9,N
1506225275.5,286047001.3,N
1506225295.3,286047004.0,N
1506225315.2,286047003.0,N
1506225335.0,286047002.5,N
1506225335.9,286047002.5,N
1506225355.7,286047001.6,N
1506225375.6,286047004.3,N
1506225395.4,286047002.1,N
1506225415.2,286047002.8,N
1506225435.1,286047003.0,N
1506225436.0,286047003.0,N
1506225455.8,286047002.2,N
1506225475.6,286047005.6,P
1506225495.5,286047001.8,N
1506225515.3,286047001.9,N
1506225535.1,286047002.8,N
1506225555.9,286047002.5,N
1506225575.7,286047002.2,N
1506225595.5,286047001.8,N
